Regional Weather Roundup
Issued by NWS

Home | Current Version | Previous Version | Graphics & Text | Print | Product List | Glossary On
Versions: 1 2 3 4 5 6 7 8 9 10 11 12 13 14 15 16 17 18 19 20 21 22 23 24 25 26 27 28 29 30 31 32 33 34 35 36 37 38 39 40 41 42 43 44 45 46 47 48 49 50
000
ASUS43 KBIS 020802
RWRND

NORTH DAKOTA REGIONAL WEATHER ROUNDUP
NATIONAL WEATHER SERVICE BISMARCK ND
300 AM CDT THU JUL 02 2015

NOTE: "FAIR" INDICATES FEW OR NO CLOUDS BELOW 12,000 FEET WITH NO
SIGNIFICANT WEATHER AND/OR OBSTRUCTIONS TO VISIBILITY.


NDZ001>003-009>011-017-020900-
NORTHWEST NORTH DAKOTA

CITY           SKY/WX    TMP DP  RH WIND       PRES   REMARKS
WILLISTON      MOCLDY    62  56  80 SW7       30.00S
MINOT          MOCLDY    63  61  93 CALM      29.94F FOG
MINOT AFB      PTCLDY    61  61 100 W5        29.93F FOG
$$

NDZ018>021-031>035-040>046-020900-
SOUTHWEST NORTH DAKOTA

CITY           SKY/WX    TMP DP  RH WIND       PRES   REMARKS
BISMARCK       CLOUDY    67  64  90 S5        29.94F
DICKINSON      CLOUDY    63  60  90 NW7       29.99S FOG
GARRISON         N/A     63  61  93 NW3       29.95F
HETTINGER ARPT CLEAR     58  56  93 CALM      30.02R FOG
$$

NDZ004>008-012>016-024-026-027-054-020900-
NORTHEAST NORTH DAKOTA

CITY           SKY/WX    TMP DP  RH WIND       PRES   REMARKS
GRAND FORKS    CLEAR     60  57  89 S5        29.94F
GRND FRKS AFB  CLEAR     60  57  87 S6        29.94F
DEVILS LAKE    MOCLDY    66  61  82 S6        29.92F
$$

NDZ022-023-025-028>030-036>039-047>053-020900-
SOUTHEAST NORTH DAKOTA

CITY           SKY/WX    TMP DP  RH WIND       PRES   REMARKS
FARGO          CLEAR     60  55  83 SE6       29.97F
JAMESTOWN      PTCLDY    64  61  90 S3        29.95S
$$



USA.gov is the U.S. government's official web portal to all federal, state and local government web resources and services.